• In Kazakhstan
  • List of Countries
  • For 7 days
  • Water Temperature
  • Weather Map
  • News
  • Weather Widgets
  • user-avatar
    Login

    Hourly Weather Francistown

    Today, 22 February, Saturday

    Time Temperature Precipitation Wind Pressure Humidity
    00:00 +26°C° 0 mm 3 mps 676 mmHg 63%
    01:00 +25°C° 0 mm 3 mps 675 mmHg 68%
    02:00 +25°C° 0 mm 2 mps 675 mmHg 73%
    03:00 +24°C° 0 mm 3 mps 675 mmHg 77%
    04:00 +24°C° 0 mm 3 mps 675 mmHg 80%
    05:00 +22°C° 0 mm 3 mps 675 mmHg 84%
    06:00 +24°C° 0 mm 3 mps 675 mmHg 79%
    07:00 +25°C° 0 mm 3 mps 676 mmHg 73%
    08:00 +26°C° 0 mm 4 mps 677 mmHg 68%
    09:00 +28°C° 0 mm 4 mps 677 mmHg 60%
    10:00 +31°C° 0 mm 3 mps 677 mmHg 51%
    11:00 +34°C° 0 mm 3 mps 677 mmHg 42%
    12:00 +34°C° 0 mm 3 mps 677 mmHg 40%
    13:00 +35°C° 0 mm 3 mps 676 mmHg 37%
    14:00 +36°C° 0 mm 3 mps 675 mmHg 35%
    15:00 +35°C° 0 mm 3 mps 674 mmHg 36%
    16:00 +34°C° 0 mm 3 mps 674 mmHg 38%
    17:00 +34°C° 0 mm 3 mps 673 mmHg 39%
    18:00 +33°C° 0 mm 3 mps 673 mmHg 42%
    19:00 +31°C° 0 mm 3 mps 674 mmHg 45%
    20:00 +30°C° 0 mm 3 mps 674 mmHg 48%
    21:00 +30°C° 0 mm 2 mps 674 mmHg 49%
    22:00 +29°C° 0 mm 2 mps 675 mmHg 50%
    23:00 +29°C° 0 mm 1 mps 675 mmHg 52%

    Tomorrow, 23 February, Sunday

    Time Temperature Precipitation Wind Pressure Humidity
    00:00 +28°C° 0 mm 1 mps 675 mmHg 55%
    01:00 +27°C° 0 mm 1 mps 674 mmHg 58%
    02:00 +26°C° 0 mm 1 mps 674 mmHg 61%
    03:00 +26°C° 0.2 mm 1 mps 674 mmHg 64%
    04:00 +25°C° 0.2 mm 1 mps 674 mmHg 66%
    05:00 +25°C° 0.2 mm 1 mps 674 mmHg 69%
    06:00 +26°C° 0.5 mm 1 mps 674 mmHg 68%
    07:00 +26°C° 0.5 mm 2 mps 675 mmHg 67%
    08:00 +27°C° 0.5 mm 2 mps 675 mmHg 65%
    09:00 +29°C° 0.1 mm 2 mps 676 mmHg 57%
    10:00 +31°C° 0.1 mm 3 mps 676 mmHg 49%
    11:00 +35°C° 0.1 mm 3 mps 676 mmHg 41%
    12:00 +35°C° 0 mm 4 mps 675 mmHg 38%
    13:00 +36°C° 0 mm 4 mps 675 mmHg 36%
    14:00 +37°C° 0 mm 4 mps 675 mmHg 33%
    15:00 +36°C° 0 mm 5 mps 674 mmHg 36%
    16:00 +35°C° 0 mm 6 mps 674 mmHg 39%
    17:00 +34°C° 0 mm 7 mps 674 mmHg 42%
    18:00 +31°C° 0.9 mm 8 mps 674 mmHg 55%
    19:00 +27°C° 0.9 mm 9 mps 674 mmHg 67%
    20:00 +23°C° 0.9 mm 11 mps 674 mmHg 80%
    21:00 +23°C° 2.2 mm 10 mps 675 mmHg 81%
    22:00 +22°C° 2.2 mm 10 mps 675 mmHg 82%
    23:00 +21°C° 2.2 mm 10 mps 676 mmHg 83%

    Day after tomorrow, 24 February, Monday

    Time Temperature Precipitation Wind Pressure Humidity
    00:00 +21°C° 0.7 mm 10 mps 676 mmHg 84%
    01:00 +19°C° 0.7 mm 9 mps 676 mmHg 85%
    02:00 +19°C° 0.7 mm 9 mps 676 mmHg 86%
    03:00 +18°C° 2.2 mm 8 mps 676 mmHg 87%
    04:00 +18°C° 2.2 mm 8 mps 676 mmHg 88%
    05:00 +18°C° 2.2 mm 8 mps 676 mmHg 89%
    06:00 +17°C° 1.6 mm 8 mps 677 mmHg 89%
    07:00 +17°C° 1.6 mm 8 mps 677 mmHg 89%
    08:00 +17°C° 1.6 mm 8 mps 678 mmHg 88%
    09:00 +17°C° 1.7 mm 8 mps 678 mmHg 88%
    10:00 +17°C° 1.7 mm 8 mps 678 mmHg 87%
    11:00 +17°C° 1.7 mm 7 mps 678 mmHg 86%
    12:00 +17°C° 0.7 mm 7 mps 678 mmHg 87%
    13:00 +17°C° 0.7 mm 7 mps 677 mmHg 87%
    14:00 +17°C° 0.7 mm 7 mps 677 mmHg 87%
    15:00 +17°C° 0.7 mm 7 mps 677 mmHg 87%
    16:00 +16°C° 0.7 mm 7 mps 676 mmHg 87%
    17:00 +16°C° 0.7 mm 7 mps 676 mmHg 87%
    18:00 +16°C° 0.1 mm 7 mps 676 mmHg 88%
    19:00 +16°C° 0.1 mm 6 mps 677 mmHg 88%
    20:00 +16°C° 0.1 mm 6 mps 677 mmHg 88%
    21:00 +16°C° 0.3 mm 6 mps 677 mmHg 89%
    22:00 +16°C° 0.3 mm 6 mps 677 mmHg 89%
    23:00 +16°C° 0.3 mm 6 mps 677 mmHg 89%

    25 February, Tuesday

    Time Temperature Precipitation Wind Pressure Humidity
    00:00 +16°C° 0.4 mm 6 mps 677 mmHg 89%
    01:00 +16°C° 0.4 mm 6 mps 677 mmHg 89%
    02:00 +16°C° 0.4 mm 6 mps 676 mmHg 89%
    03:00 +16°C° 0.2 mm 6 mps 676 mmHg 89%
    04:00 +16°C° 0.2 mm 7 mps 676 mmHg 90%
    05:00 +16°C° 0.2 mm 7 mps 676 mmHg 90%
    06:00 +16°C° 0 mm 7 mps 677 mmHg 89%
    07:00 +16°C° 0 mm 7 mps 677 mmHg 88%
    08:00 +16°C° 0 mm 7 mps 677 mmHg 87%
    09:00 +17°C° 0 mm 6 mps 677 mmHg 85%
    10:00 +17°C° 0 mm 6 mps 677 mmHg 84%
    11:00 +19°C° 0 mm 6 mps 677 mmHg 82%
    12:00 +19°C° 0 mm 6 mps 677 mmHg 79%
    13:00 +20°C° 0 mm 6 mps 677 mmHg 76%
    14:00 +21°C° 0 mm 5 mps 677 mmHg 73%
    15:00 +21°C° 0 mm 5 mps 676 mmHg 70%
    16:00 +22°C° 0 mm 5 mps 676 mmHg 67%
    17:00 +23°C° 0 mm 5 mps 676 mmHg 64%
    18:00 +21°C° 0 mm 4 mps 676 mmHg 69%
    19:00 +20°C° 0 mm 4 mps 676 mmHg 73%
    20:00 +19°C° 0 mm 3 mps 676 mmHg 77%
    21:00 +19°C° 0 mm 3 mps 676 mmHg 77%
    22:00 +18°C° 0 mm 3 mps 676 mmHg 77%
    23:00 +18°C° 0 mm 3 mps 676 mmHg 78%

    26 February, Wednesday

    Time Temperature Precipitation Wind Pressure Humidity
    00:00 +18°C° 0 mm 3 mps 676 mmHg 78%
    01:00 +18°C° 0 mm 3 mps 676 mmHg 79%
    02:00 +18°C° 0 mm 3 mps 675 mmHg 80%
    03:00 +18°C° 0 mm 4 mps 676 mmHg 79%
    04:00 +18°C° 0 mm 4 mps 676 mmHg 79%
    05:00 +18°C° 0 mm 4 mps 676 mmHg 79%
    06:00 +19°C° 0 mm 4 mps 676 mmHg 76%
    07:00 +19°C° 0 mm 4 mps 676 mmHg 73%
    08:00 +20°C° 0 mm 4 mps 677 mmHg 70%
    09:00 +21°C° 0 mm 3 mps 677 mmHg 67%
    10:00 +22°C° 0 mm 3 mps 677 mmHg 65%
    11:00 +24°C° 0 mm 2 mps 677 mmHg 62%
    12:00 +25°C° 0 mm 2 mps 676 mmHg 61%
    13:00 +26°C° 0 mm 2 mps 676 mmHg 60%
    14:00 +26°C° 0 mm 2 mps 675 mmHg 59%
    15:00 +27°C° 0 mm 2 mps 675 mmHg 58%
    16:00 +27°C° 0 mm 1 mps 675 mmHg 56%
    17:00 +28°C° 0 mm 1 mps 674 mmHg 55%
    18:00 +27°C° 0 mm 1 mps 674 mmHg 59%
    19:00 +26°C° 0 mm 1 mps 675 mmHg 64%
    20:00 +24°C° 0 mm 1 mps 675 mmHg 69%
    21:00 +24°C° 0 mm 1 mps 675 mmHg 71%
    22:00 +23°C° 0 mm 1 mps 675 mmHg 72%
    23:00 +23°C° 0 mm 1 mps 675 mmHg 74%

    27 February, Thursday

    Time Temperature Precipitation Wind Pressure Humidity
    00:00 +23°C° 0 mm 1 mps 675 mmHg 74%
    01:00 +23°C° 0 mm 1 mps 675 mmHg 73%
    02:00 +23°C° 0 mm 1 mps 675 mmHg 73%
    03:00 +23°C° 0 mm 1 mps 675 mmHg 74%
    04:00 +23°C° 0 mm 1 mps 675 mmHg 75%
    05:00 +23°C° 0 mm 2 mps 675 mmHg 75%
    06:00 +23°C° 0 mm 2 mps 675 mmHg 75%
    07:00 +24°C° 0 mm 2 mps 675 mmHg 75%
    08:00 +24°C° 0 mm 2 mps 676 mmHg 75%
    09:00 +25°C° 0.1 mm 2 mps 676 mmHg 72%
    10:00 +26°C° 0.1 mm 1 mps 676 mmHg 68%
    11:00 +27°C° 0.1 mm 1 mps 676 mmHg 65%
    12:00 +29°C° 0.7 mm 1 mps 676 mmHg 58%
    13:00 +30°C° 0.7 mm 1 mps 675 mmHg 52%
    14:00 +31°C° 0.7 mm 1 mps 675 mmHg 46%
    15:00 +31°C° 0.8 mm 1 mps 675 mmHg 45%
    16:00 +31°C° 0.8 mm 1 mps 674 mmHg 45%
    17:00 +31°C° 0.8 mm 1 mps 674 mmHg 44%
    18:00 +30°C° 0 mm 1 mps 674 mmHg 49%
    19:00 +28°C° 0 mm 1 mps 674 mmHg 55%
    20:00 +26°C° 0 mm 1 mps 674 mmHg 60%
    21:00 +26°C° 0 mm 1 mps 674 mmHg 61%
    22:00 +25°C° 0 mm 1 mps 675 mmHg 62%
    23:00 +25°C° 0 mm 1 mps 675 mmHg 63%
    Show more